Station History


Daily Summary for February 8, 2012 Units:  English    Metric   Both
« Previous Day
Next Day »
Daily Weekly Monthly Yearly Custom
  High: Low: Average:
Temperature: 70.3 °F 43.3 °F 54.4 °F
Dew Point: 49.1 °F 40.9 °F 45 °F
Humidity: 93% 42% 73%
Wind Speed: 4.0mph 0.0mph 2mph
Wind Gust: 4.0mph - -
Wind- - SW
Pressure: 30.26 in 30.05 in -
Precipitation: 0.00 in    
Historical Graphs
 
 
Tabular Data for February 8, 2012
Time Temperature Dew Point Pressure Wind Wind Speed Wind Gust Humidity Rainfall Rate (Hourly)
00:02 51.7 °F 45.1 °F 30.05 in Calm     78% 0.00 in
00:07 51.7 °F 45.1 °F 30.05 in Calm     78% 0.00 in
00:12 51.6 °F 44.6 °F 30.05 in Calm     77% 0.00 in
00:17 51.6 °F 44.6 °F 30.05 in Calm     77% 0.00 in
00:18 51.6 °F 44.6 °F 30.05 in Calm     77% 0.00 in
00:23 51.5 °F 44.5 °F 30.05 in Calm     77% 0.00 in
00:28 51.3 °F 44.7 °F 30.05 in Calm     78% 0.00 in
00:33 51.2 °F 44.6 °F 30.05 in Calm     78% 0.00 in
00:38 51.0 °F 44.4 °F 30.05 in Calm     78% 0.00 in
00:43 50.8 °F 44.2 °F 30.05 in Calm     78% 0.00 in
00:48 50.7 °F 44.4 °F 30.05 in Calm     79% 0.00 in
00:53 50.7 °F 44.4 °F 30.06 in Calm     79% 0.00 in
00:58 50.6 °F 44.7 °F 30.06 in Calm     80% 0.00 in
01:03 50.6 °F 44.7 °F 30.06 in Calm     80% 0.00 in
01:08 50.6 °F 44.7 °F 30.06 in Calm     80% 0.00 in
01:13 50.7 °F 44.8 °F 30.07 in Calm     80% 0.00 in
01:18 50.8 °F 44.9 °F 30.07 in Calm     80% 0.00 in
01:23 50.9 °F 44.9 °F 30.07 in Calm     80% 0.00 in
01:28 50.8 °F 44.9 °F 30.07 in Calm     80% 0.00 in
01:34 50.8 °F 44.9 °F 30.07 in Calm     80% 0.00 in
01:39 50.8 °F 44.9 °F 30.07 in Calm     80% 0.00 in
01:44 50.8 °F 44.9 °F 30.07 in Calm     80% 0.00 in
01:49 50.8 °F 44.9 °F 30.07 in Calm     80% 0.00 in
01:54 50.8 °F 44.9 °F 30.08 in Calm     80% 0.00 in
01:59 50.8 °F 44.9 °F 30.08 in Calm     80% 0.00 in
02:04 50.9 °F 44.6 °F 30.08 in Calm     79% 0.00 in
02:09 51.0 °F 44.7 °F 30.08 in Calm     79% 0.00 in
02:14 51.1 °F 44.8 °F 30.08 in Calm     79% 0.00 in
02:19 51.0 °F 44.7 °F 30.08 in Calm     79% 0.00 in
02:24 50.9 °F 44.6 °F 30.08 in Calm     79% 0.00 in
02:29 50.8 °F 44.9 °F 30.08 in Calm     80% 0.00 in
02:34 50.7 °F 44.8 °F 30.08 in Calm     80% 0.00 in
02:39 50.6 °F 44.7 °F 30.08 in Calm     80% 0.00 in
02:44 50.5 °F 44.6 °F 30.08 in Calm     80% 0.00 in
02:49 50.4 °F 44.8 °F 30.08 in Calm     81% 0.00 in
02:54 50.3 °F 44.7 °F 30.08 in Calm     81% 0.00 in
02:59 50.3 °F 44.7 °F 30.08 in Calm     81% 0.00 in
03:04 50.2 °F 44.9 °F 30.08 in Calm     82% 0.00 in
03:09 50.1 °F 44.8 °F 30.08 in Calm     82% 0.00 in
03:14 50.1 °F 44.8 °F 30.08 in Calm     82% 0.00 in
03:19 49.9 °F 44.6 °F 30.08 in Calm     82% 0.00 in
03:24 49.7 °F 44.4 °F 30.08 in Calm     82% 0.00 in
03:29 49.5 °F 44.2 °F 30.08 in Calm     82% 0.00 in
03:34 49.4 °F 44.1 °F 30.07 in Calm     82% 0.00 in
03:39 49.2 °F 44.3 °F 30.07 in Calm     83% 0.00 in
03:44 49.1 °F 44.2 °F 30.07 in Calm     83% 0.00 in
03:49 48.9 °F 44.0 °F 30.07 in Calm     83% 0.00 in
03:54 48.7 °F 43.8 °F 30.07 in Calm     83% 0.00 in
03:59 48.5 °F 43.9 °F 30.07 in Calm     84% 0.00 in
04:04 48.3 °F 43.7 °F 30.07 in Calm     84% 0.00 in
04:09 48.3 °F 43.7 °F 30.08 in Calm     84% 0.00 in
04:14 48.1 °F 43.5 °F 30.07 in Calm     84% 0.00 in
04:19 47.9 °F 43.3 °F 30.08 in Calm     84% 0.00 in
04:24 48.0 °F 43.4 °F 30.08 in Calm     84% 0.00 in
04:29 47.9 °F 43.3 °F 30.08 in Calm     84% 0.00 in
04:34 47.6 °F 43.0 °F 30.08 in Calm     84% 0.00 in
04:39 47.4 °F 43.1 °F 30.09 in Calm     85% 0.00 in
04:44 47.1 °F 42.8 °F 30.09 in Calm     85% 0.00 in
04:49 46.8 °F 42.8 °F 30.10 in Calm     86% 0.00 in
04:54 46.7 °F 42.7 °F 30.11 in Calm     86% 0.00 in
04:59 46.4 °F 42.7 °F 30.11 in Calm     87% 0.00 in
05:04 46.2 °F 42.5 °F 30.11 in Calm     87% 0.00 in
05:09 45.9 °F 42.5 °F 30.11 in Calm     88% 0.00 in
05:14 45.6 °F 42.3 °F 30.11 in Calm     88% 0.00 in
05:19 45.2 °F 41.9 °F 30.11 in Calm     88% 0.00 in
05:24 45.1 °F 42.1 °F 30.11 in Calm     89% 0.00 in
05:29 45.1 °F 42.3 °F 30.12 in Calm     90% 0.00 in
05:34 45.0 °F 42.2 °F 30.12 in Calm     90% 0.00 in
05:39 44.9 °F 42.1 °F 30.12 in Calm     90% 0.00 in
05:44 44.9 °F 42.4 °F 30.12 in Calm     91% 0.00 in
05:49 44.8 °F 42.0 °F 30.13 in Calm     90% 0.00 in
05:54 44.6 °F 41.8 °F 30.13 in Calm     90% 0.00 in
05:59 44.7 °F 42.2 °F 30.13 in SSW 1.1 mph   91% 0.00 in
06:04 44.7 °F 41.9 °F 30.14 in SE 1.1 mph   90% 0.00 in
06:09 44.7 °F 41.9 °F 30.14 in Calm   0.2 mph 90% 0.00 in
06:14 44.5 °F 41.7 °F 30.14 in Calm     90% 0.00 in
06:19 44.4 °F 41.7 °F 30.15 in Calm     90% 0.00 in
06:24 44.3 °F 41.6 °F 30.15 in Calm     90% 0.00 in
06:29 44.1 °F 41.6 °F 30.16 in Calm     91% 0.00 in
06:34 43.9 °F 41.4 °F 30.17 in West 1.1 mph   91% 0.00 in
06:39 43.8 °F 41.3 °F 30.17 in Calm     91% 0.00 in
06:44 43.5 °F 41.0 °F 30.17 in Calm     91% 0.00 in
06:49 43.4 °F 40.9 °F 30.17 in Calm     91% 0.00 in
06:54 43.4 °F 41.2 °F 30.16 in Calm     92% 0.00 in
06:59 43.4 °F 41.2 °F 30.17 in Calm     92% 0.00 in
07:04 43.3 °F 41.1 °F 30.17 in Calm     92% 0.00 in
07:09 43.4 °F 41.5 °F 30.17 in Calm     93% 0.00 in
07:15 43.5 °F 41.6 °F 30.17 in Calm     93% 0.00 in
07:20 43.5 °F 41.6 °F 30.18 in South 1.1 mph   93% 0.00 in
07:25 43.8 °F 41.9 °F 30.17 in Calm     93% 0.00 in
07:30 44.0 °F 42.1 °F 30.18 in Calm     93% 0.00 in
07:35 44.2 °F 42.0 °F 30.17 in Calm     92% 0.00 in
07:40 44.6 °F 42.4 °F 30.18 in Calm     92% 0.00 in
07:45 44.9 °F 42.7 °F 30.18 in Calm     92% 0.00 in
07:50 45.3 °F 42.8 °F 30.18 in Calm     91% 0.00 in
07:55 45.7 °F 43.2 °F 30.18 in Calm     91% 0.00 in
08:00 46.2 °F 43.7 °F 30.18 in Calm     91% 0.00 in
08:05 46.7 °F 43.9 °F 30.18 in Calm     90% 0.00 in
08:10 47.2 °F 44.4 °F 30.19 in Calm     90% 0.00 in
08:15 47.8 °F 44.4 °F 30.18 in Calm     88% 0.00 in
08:20 48.3 °F 44.6 °F 30.19 in Calm     87% 0.00 in
08:25 48.9 °F 44.9 °F 30.19 in Calm     86% 0.00 in
08:30 49.7 °F 45.1 °F 30.19 in Calm     84% 0.00 in
08:35 50.3 °F 45.0 °F 30.19 in Calm     82% 0.00 in
08:40 51.0 °F 45.0 °F 30.19 in SE 1.1 mph 1.1 mph 80% 0.00 in
08:45 51.5 °F 44.9 °F 30.19 in Calm     78% 0.00 in
08:46 51.6 °F 45.0 °F 30.19 in Calm     78% 0.00 in
08:51 52.1 °F 44.8 °F 30.19 in SE 1.1 mph   76% 0.00 in
08:56 52.5 °F 44.4 °F 30.19 in SSE 2.3 mph 2.3 mph 74% 0.00 in
09:01 52.9 °F 44.5 °F 30.19 in Calm     73% 0.00 in
09:06 53.3 °F 44.5 °F 30.20 in South 1.1 mph 1.1 mph 72% 0.00 in
09:11 53.8 °F 45.0 °F 30.20 in Calm     72% 0.00 in
09:16 54.3 °F 45.1 °F 30.20 in Calm     71% 0.00 in
09:21 54.6 °F 44.6 °F 30.20 in SSW 2.0 mph 2.0 mph 69% 0.00 in
09:26 55.1 °F 44.7 °F 30.21 in SW 1.1 mph 1.1 mph 68% 0.00 in
09:31 55.3 °F 44.9 °F 30.21 in Calm     68% 0.00 in
09:36 55.7 °F 44.9 °F 30.21 in Calm   0.1 mph 67% 0.00 in
09:41 56.2 °F 45.0 °F 30.21 in SSE 1.1 mph 1.1 mph 66% 0.00 in
09:46 56.8 °F 45.2 °F 30.22 in SSW 1.1 mph 1.1 mph 65% 0.00 in
09:51 57.2 °F 45.1 °F 30.22 in South 1.1 mph 1.1 mph 64% 0.00 in
09:56 57.7 °F 45.6 °F 30.21 in SSW 3.5 mph 3.5 mph 64% 0.00 in
10:01 57.9 °F 45.0 °F 30.22 in SSW 3.5 mph 3.5 mph 62% 0.00 in
10:06 58.0 °F 45.0 °F 30.22 in SW 2.0 mph 2.0 mph 62% 0.00 in
10:11 58.1 °F 45.1 °F 30.22 in SSW 3.5 mph 3.5 mph 62% 0.00 in
10:16 58.3 °F 45.8 °F 30.22 in ESE 1.1 mph 1.1 mph 63% 0.00 in
10:21 58.7 °F 46.1 °F 30.22 in SW 1.1 mph 1.1 mph 63% 0.00 in
10:26 58.9 °F 46.3 °F 30.22 in SW 2.3 mph 2.3 mph 63% 0.00 in
10:32 59.0 °F 46.8 °F 30.22 in SSW 2.3 mph   64% 0.00 in
10:37 59.0 °F 46.4 °F 30.22 in SE 3.5 mph 3.5 mph 63% 0.00 in
10:42 59.0 °F 46.8 °F 30.22 in WSW 3.5 mph 3.5 mph 64% 0.00 in
10:47 59.1 °F 46.5 °F 30.22 in SSE 4.0 mph 4.0 mph 63% 0.00 in
10:52 59.3 °F 46.7 °F 30.22 in SW 2.3 mph 2.3 mph 63% 0.00 in
10:57 59.6 °F 47.0 °F 30.22 in WSW 2.3 mph 2.3 mph 63% 0.00 in
11:02 60.1 °F 47.0 °F 30.22 in South 2.3 mph 2.3 mph 62% 0.00 in
11:07 60.3 °F 46.8 °F 30.22 in SSW 3.5 mph 3.5 mph 61% 0.00 in
11:12 60.2 °F 46.7 °F 30.22 in SSW 2.3 mph 2.3 mph 61% 0.00 in
11:17 60.4 °F 46.0 °F 30.22 in SE 3.5 mph 3.5 mph 59% 0.00 in
11:22 60.7 °F 47.2 °F 30.22 in SSW 1.1 mph 1.1 mph 61% 0.00 in
11:27 60.9 °F 46.9 °F 30.22 in WNW 3.5 mph 3.5 mph 60% 0.00 in
11:32 61.1 °F 46.7 °F 30.23 in SW 2.3 mph 2.3 mph 59% 0.00 in
11:37 61.3 °F 47.3 °F 30.22 in ESE 2.3 mph 2.3 mph 60% 0.00 in
11:42 61.6 °F 47.6 °F 30.22 in SSE 2.3 mph 2.3 mph 60% 0.00 in
11:47 62.0 °F 47.0 °F 30.22 in SW 1.1 mph 1.1 mph 58% 0.00 in
11:52 62.1 °F 47.6 °F 30.22 in SSW 2.3 mph 2.3 mph 59% 0.00 in
11:57 62.4 °F 47.4 °F 30.22 in SSE 3.5 mph 3.5 mph 58% 0.00 in
12:02 62.3 °F 47.8 °F 30.22 in SW 1.1 mph 1.1 mph 59% 0.00 in
12:07 62.8 °F 47.3 °F 30.22 in SSW 2.3 mph 2.3 mph 57% 0.00 in
12:12 63.0 °F 47.5 °F 30.21 in SSE 3.5 mph 3.5 mph 57% 0.00 in
12:17 63.1 °F 48.1 °F 30.21 in NNW 1.1 mph 1.1 mph 58% 0.00 in
12:22 63.4 °F 48.4 °F 30.20 in NW 1.1 mph 1.1 mph 58% 0.00 in
12:27 63.5 °F 47.5 °F 30.20 in SSW 1.1 mph 1.1 mph 56% 0.00 in
12:32 63.7 °F 48.2 °F 30.20 in North 3.5 mph 3.5 mph 57% 0.00 in
12:37 64.2 °F 48.6 °F 30.20 in West 1.1 mph 1.1 mph 57% 0.00 in
12:42 64.4 °F 48.4 °F 30.20 in North 3.5 mph 3.5 mph 56% 0.00 in
12:47 64.7 °F 49.1 °F 30.20 in North 1.1 mph 1.1 mph 57% 0.00 in
12:52 65.0 °F 47.9 °F 30.19 in WSW 2.3 mph 2.3 mph 54% 0.00 in
12:57 65.5 °F 47.9 °F 30.19 in SSW 1.1 mph 1.1 mph 53% 0.00 in
13:02 65.4 °F 48.8 °F 30.19 in East 1.1 mph   55% 0.00 in
13:07 66.0 °F 47.9 °F 30.19 in SSW 1.1 mph 1.1 mph 52% 0.00 in
13:12 66.5 °F 48.3 °F 30.18 in SSW 2.3 mph 2.3 mph 52% 0.00 in
13:17 66.8 °F 48.1 °F 30.17 in SSW 2.3 mph 2.3 mph 51% 0.00 in
13:22 66.9 °F 47.1 °F 30.17 in SSE 2.3 mph 2.3 mph 49% 0.00 in
13:27 67.3 °F 47.5 °F 30.17 in SSW 1.1 mph 1.1 mph 49% 0.00 in
13:32 67.5 °F 47.1 °F 30.16 in SSW 2.3 mph   48% 0.00 in
13:37 67.8 °F 47.9 °F 30.15 in NNW 1.1 mph   49% 0.00 in
13:42 68.1 °F 48.2 °F 30.15 in SW 1.1 mph 1.1 mph 49% 0.00 in
13:47 67.9 °F 46.9 °F 30.15 in East 1.1 mph 1.1 mph 47% 0.00 in
13:52 68.2 °F 46.6 °F 30.15 in West 1.1 mph 1.1 mph 46% 0.00 in
13:58 68.5 °F 46.9 °F 30.15 in SW 2.0 mph 2.0 mph 46% 0.00 in
14:03 68.6 °F 47.6 °F 30.14 in SW 1.1 mph 1.1 mph 47% 0.00 in
14:08 68.6 °F 47.6 °F 30.14 in WSW 1.1 mph   47% 0.00 in
14:13 68.2 °F 46.0 °F 30.14 in SSW 1.1 mph   45% 0.00 in
14:18 68.7 °F 47.6 °F 30.13 in West 1.1 mph 1.1 mph 47% 0.00 in
14:23 69.1 °F 48.0 °F 30.13 in SSE 1.1 mph 1.1 mph 47% 0.00 in
14:28 69.3 °F 48.8 °F 30.13 in North 1.1 mph 1.1 mph 48% 0.00 in
14:33 69.2 °F 47.5 °F 30.13 in SW 3.5 mph 3.5 mph 46% 0.00 in
14:38 69.0 °F 47.4 °F 30.13 in Calm   0.6 mph 46% 0.00 in
14:43 69.1 °F 46.9 °F 30.13 in West 2.3 mph 2.3 mph 45% 0.00 in
14:48 69.0 °F 46.8 °F 30.13 in WNW 2.3 mph 2.3 mph 45% 0.00 in
14:53 68.9 °F 47.3 °F 30.13 in SSW 1.1 mph 1.1 mph 46% 0.00 in
14:58 69.3 °F 47.6 °F 30.12 in NE 2.3 mph 2.3 mph 46% 0.00 in
15:03 69.3 °F 47.0 °F 30.12 in WSW 1.1 mph 1.1 mph 45% 0.00 in
15:08 69.4 °F 46.5 °F 30.13 in SW 2.3 mph 2.3 mph 44% 0.00 in
15:13 69.6 °F 47.3 °F 30.13 in WNW 3.5 mph 3.5 mph 45% 0.00 in
15:18 69.5 °F 47.2 °F 30.13 in WSW 3.5 mph 3.5 mph 45% 0.00 in
15:23 69.5 °F 46.6 °F 30.13 in Calm     44% 0.00 in
15:28 69.9 °F 47.0 °F 30.13 in SSE 1.1 mph 1.1 mph 44% 0.00 in
15:33 69.9 °F 46.4 °F 30.13 in Calm     43% 0.00 in
15:38 70.3 °F 46.7 °F 30.13 in NNW 2.3 mph 2.3 mph 43% 0.00 in
15:43 69.7 °F 45.6 °F 30.13 in NNW 1.1 mph 1.1 mph 42% 0.00 in
15:48 69.5 °F 46.0 °F 30.13 in West 2.3 mph 2.3 mph 43% 0.00 in
15:53 69.4 °F 46.5 °F 30.13 in West 2.3 mph 2.3 mph 44% 0.00 in
15:58 69.2 °F 46.4 °F 30.13 in NNW 2.3 mph 2.3 mph 44% 0.00 in
16:03 69.3 °F 47.0 °F 30.13 in Calm     45% 0.00 in
16:08 68.7 °F 46.5 °F 30.13 in West 1.1 mph 1.1 mph 45% 0.00 in
16:13 68.1 °F 46.5 °F 30.13 in WNW 1.1 mph 1.1 mph 46% 0.00 in
16:18 67.6 °F 46.6 °F 30.14 in West 2.3 mph 2.3 mph 47% 0.00 in
16:23 67.1 °F 46.7 °F 30.14 in NNE 3.5 mph 3.5 mph 48% 0.00 in
16:28 66.4 °F 46.7 °F 30.14 in SSE 2.3 mph 2.3 mph 49% 0.00 in
16:33 65.9 °F 46.7 °F 30.14 in WSW 2.3 mph 2.3 mph 50% 0.00 in
16:38 65.6 °F 47.0 °F 30.14 in WNW 2.3 mph 2.3 mph 51% 0.00 in
16:43 65.2 °F 47.1 °F 30.14 in NW 2.3 mph 2.3 mph 52% 0.00 in
16:48 64.9 °F 46.8 °F 30.14 in NNW 1.1 mph 1.1 mph 52% 0.00 in
16:53 64.5 °F 47.0 °F 30.14 in West 1.1 mph 1.1 mph 53% 0.00 in
16:58 64.2 °F 46.2 °F 30.14 in North 3.5 mph 3.5 mph 52% 0.00 in
17:03 63.9 °F 46.4 °F 30.14 in NW 2.3 mph 2.3 mph 53% 0.00 in
17:08 63.6 °F 46.1 °F 30.15 in North 1.1 mph   53% 0.00 in
17:13 63.3 °F 46.4 °F 30.15 in Calm     54% 0.00 in
17:18 62.9 °F 46.5 °F 30.15 in Calm     55% 0.00 in
17:23 62.5 °F 46.6 °F 30.15 in Calm     56% 0.00 in
17:28 62.2 °F 46.8 °F 30.15 in Calm     57% 0.00 in
17:33 61.8 °F 46.4 °F 30.15 in Calm     57% 0.00 in
17:38 61.4 °F 46.5 °F 30.15 in Calm     58% 0.00 in
17:43 61.0 °F 46.6 °F 30.16 in Calm     59% 0.00 in
17:48 60.7 °F 46.7 °F 30.16 in Calm     60% 0.00 in
17:53 60.3 °F 46.8 °F 30.16 in Calm     61% 0.00 in
17:58 59.9 °F 46.8 °F 30.16 in Calm     62% 0.00 in
18:03 59.5 °F 46.9 °F 30.16 in Calm     63% 0.00 in
18:08 59.1 °F 46.5 °F 30.17 in Calm     63% 0.00 in
18:13 58.6 °F 46.9 °F 30.17 in Calm     65% 0.00 in
18:18 58.0 °F 46.3 °F 30.17 in Calm     65% 0.00 in
18:23 57.4 °F 46.5 °F 30.17 in Calm     67% 0.00 in
18:28 56.9 °F 46.4 °F 30.17 in Calm     68% 0.00 in
18:33 56.3 °F 45.9 °F 30.17 in Calm     68% 0.00 in
18:39 55.8 °F 46.2 °F 30.17 in Calm     70% 0.00 in
18:44 55.4 °F 46.2 °F 30.17 in Calm     71% 0.00 in
18:49 55.0 °F 46.1 °F 30.17 in Calm     72% 0.00 in
18:54 54.6 °F 46.1 °F 30.17 in Calm     73% 0.00 in
18:59 54.3 °F 45.8 °F 30.18 in Calm     73% 0.00 in
19:04 53.8 °F 45.3 °F 30.18 in Calm     73% 0.00 in
19:09 53.4 °F 45.3 °F 30.18 in Calm     74% 0.00 in
19:14 53.0 °F 45.3 °F 30.18 in Calm     75% 0.00 in
19:19 52.7 °F 46.0 °F 30.18 in Calm     78% 0.00 in
19:24 52.6 °F 45.9 °F 30.18 in Calm     78% 0.00 in
19:29 52.4 °F 45.7 °F 30.18 in Calm     78% 0.00 in
19:34 52.0 °F 45.7 °F 30.18 in Calm     79% 0.00 in
19:39 51.7 °F 45.4 °F 30.18 in Calm     79% 0.00 in
19:44 51.3 °F 45.0 °F 30.18 in Calm     79% 0.00 in
19:49 51.0 °F 45.0 °F 30.18 in Calm     80% 0.00 in
19:54 50.8 °F 45.2 °F 30.18 in Calm     81% 0.00 in
19:59 50.6 °F 45.0 °F 30.18 in Calm     81% 0.00 in
20:04 50.3 °F 44.7 °F 30.18 in Calm     81% 0.00 in
20:09 50.3 °F 45.0 °F 30.18 in Calm     82% 0.00 in
20:14 50.0 °F 44.7 °F 30.19 in Calm     82% 0.00 in
20:19 49.8 °F 44.5 °F 30.19 in Calm     82% 0.00 in
20:24 49.6 °F 44.6 °F 30.19 in Calm     83% 0.00 in
20:29 49.4 °F 44.5 °F 30.19 in Calm     83% 0.00 in
20:34 49.3 °F 44.7 °F 30.19 in Calm     84% 0.00 in
20:39 49.1 °F 44.5 °F 30.19 in Calm     84% 0.00 in
20:44 48.8 °F 44.2 °F 30.19 in Calm     84% 0.00 in
20:49 48.7 °F 44.1 °F 30.20 in Calm     84% 0.00 in
20:54 48.5 °F 43.9 °F 30.20 in Calm     84% 0.00 in
20:59 48.4 °F 43.8 °F 30.20 in Calm     84% 0.00 in
21:00 48.3 °F 43.7 °F 30.20 in Calm     84% 0.00 in
21:01 48.3 °F 44.0 °F 30.20 in Calm     85% 0.00 in
21:06 48.2 °F 43.9 °F 30.20 in Calm     85% 0.00 in
21:11 48.1 °F 44.1 °F 30.21 in Calm     86% 0.00 in
21:16 48.1 °F 44.1 °F 30.21 in Calm     86% 0.00 in
21:21 48.1 °F 44.1 °F 30.21 in Calm     86% 0.00 in
21:26 47.9 °F 43.9 °F 30.21 in Calm     86% 0.00 in
21:31 47.9 °F 43.9 °F 30.22 in Calm     86% 0.00 in
21:36 47.9 °F 44.2 °F 30.22 in Calm     87% 0.00 in
21:41 47.9 °F 43.9 °F 30.22 in Calm     86% 0.00 in
21:46 47.8 °F 43.8 °F 30.22 in Calm     86% 0.00 in
21:51 47.8 °F 44.1 °F 30.23 in Calm     87% 0.00 in
21:56 47.6 °F 43.6 °F 30.23 in Calm     86% 0.00 in
22:01 47.5 °F 43.5 °F 30.23 in Calm     86% 0.00 in
22:06 47.3 °F 43.3 °F 30.23 in Calm     86% 0.00 in
22:11 47.1 °F 43.1 °F 30.24 in Calm     86% 0.00 in
22:16 47.0 °F 43.3 °F 30.24 in Calm     87% 0.00 in
22:21 46.9 °F 43.5 °F 30.24 in Calm     88% 0.00 in
22:26 46.7 °F 43.3 °F 30.24 in Calm     88% 0.00 in
22:31 46.7 °F 43.6 °F 30.24 in Calm     89% 0.00 in
22:36 46.8 °F 43.7 °F 30.24 in Calm     89% 0.00 in
22:41 47.0 °F 43.6 °F 30.25 in Calm     88% 0.00 in
22:46 47.3 °F 43.6 °F 30.25 in Calm     87% 0.00 in
22:51 47.7 °F 43.7 °F 30.25 in Calm     86% 0.00 in
22:56 47.7 °F 43.4 °F 30.25 in Calm     85% 0.00 in
23:01 47.5 °F 43.2 °F 30.25 in Calm     85% 0.00 in
23:06 47.1 °F 43.1 °F 30.25 in Calm     86% 0.00 in
23:11 46.8 °F 42.8 °F 30.25 in Calm     86% 0.00 in
23:16 46.4 °F 42.4 °F 30.25 in Calm     86% 0.00 in
23:21 46.1 °F 42.1 °F 30.25 in Calm     86% 0.00 in
23:26 45.8 °F 42.2 °F 30.25 in Calm     87% 0.00 in
23:31 45.6 °F 42.0 °F 30.25 in Calm     87% 0.00 in
23:36 45.5 °F 42.4 °F 30.25 in Calm     89% 0.00 in
23:41 45.4 °F 42.3 °F 30.25 in Calm     89% 0.00 in
23:46 45.2 °F 42.2 °F 30.26 in Calm     89% 0.00 in
23:51 45.0 °F 42.0 °F 30.26 in Calm     89% 0.00 in
23:56 44.9 °F 41.9 °F 30.26 in Calm     89% 0.00 in
Compliments of Weather Underground